Regional Weather Roundup
Issued by NWS Upton, NY

Current Version | Previous Version | Graphics & Text | Print | Product List | Glossary Off
Versions: 1 2 3 4 5 6 7 8 9 10 11 12 13 14 15 16 17 18 19 20 21 22 23 24 25 26 27

000
ASUS41 KOKX 291104
RWROKX

REGIONAL WEATHER ROUNDUP
NATIONAL WEATHER SERVICE NEW YORK NY
700 AM EDT MON AUG 29 2016

NOTE: "FAIR" INDICATES FEW OR NO CLOUDS BELOW 12,000 FEET WITH NO
SIGNIFICANT WEATHER AND/OR OBSTRUCTIONS TO VISIBILITY.

NYZ071-072-176-178-NJZ106-104-291200-
NEW YORK CITY METRO AREA

CITY           SKY/WX    TMP DP  RH WIND       PRES   REMARKS
Central Park   CLEAR     74  64  71 W5        30.15R
LaGuardia APRT MOCLDY    77  64  64 SW7       30.11R
Kennedy INTL   MOCLDY    73  68  84 W8        30.13R
Newark/Liberty MOCLDY    73  65  75 SW9       30.12R
Bronx Bot Gard   N/A     75  63  64 W7        30.13S
Wall St Helipt MOSUNNY   75  68  78 W8        30.13R
Teterboro      PTCLDY    73  64  73 S3        30.11R
$$

NYZ177-179-078>081-291200-
LONG ISLAND NEW YORK

CITY           SKY/WX    TMP DP  RH WIND       PRES   REMARKS
Farmingdale    PTCLDY    73  67  81 SW8       30.11S
MacArthur/ISP  PTCLDY    73  65  75 SW6       30.11R
Shirley        CLEAR     73  67  81 SW6       30.12R
Riverhead      NOT AVBL
Westhampton    CLEAR     72  69  90 SW6       30.13R
Southampton      N/A     73  70  88 W5        30.08R
Bridgehampton    N/A     68  66  94 CALM      30.10S
East Hampton   FAIR      70  68  92 CALM      30.11R
Montauk          N/A     72  68  87 VRB3      30.12R
$$

NYZ052-065-067-291200-
HUDSON VALLEY

CITY           SKY/WX    TMP DP  RH WIND       PRES   REMARKS
White Plains   PTCLDY    73  64  73 W8        30.11S
Newburgh       MOCLDY    72  66  83 W9        30.14R
Montgomery     PTCLDY    71  66  84 S3        30.13R
Poughkeepsie   PTCLDY    71  65  81 CALM      30.11R
Albany         CLOUDY    72  66  81 NW3       30.11R
$$

NJZ001-105-106-008-010-013-015-019>022-104-291200-
NEW JERSEY

CITY           SKY/WX    TMP DP  RH WIND       PRES   REMARKS
Newark/Liberty MOCLDY    73  65  75 SW9       30.12R
Teterboro      PTCLDY    73  64  73 S3        30.11R
Caldwell       CLOUDY    72  65  78 VRB3      30.13R
Morristown     MOCLDY    64  64 100 CALM      30.13R
Somerville     PTCLDY    67  64  90 CALM      30.12R
Linden         FAIR      72  65  77 CALM      30.14S
Sussex         MOCLDY    68  67  96 CALM      30.15R
Abdover          N/A     69  64  84 CALM      30.16R
Trenton        MOCLDY    71  66  84 NW3       30.14R
Millville      CLEAR     64  64 100 CALM      30.15R
Atlantic City  CLEAR     66  62  87 CALM      30.14R
Wrightstown    CLEAR     69  68  94 W3        30.12R
Toms River     CLOUDY    67  65  93 W7        30.15R
Belmar         CLOUDY    69  67  93 W5        30.15R
$$

PAZ047>061-062-071-291200-
EASTERN PENNSYLVANIA

CITY           SKY/WX    TMP DP  RH WIND       PRES   REMARKS
Philadelphia   PTCLDY    74  66  76 W8        30.15R
Allentown      PTCLDY    71  64  78 W5        30.15R
Scranton       CLOUDY    73  66  78 W6        30.18R
$$

CTZ002-004>006-009-010-012-RIZ004-006-007-MAZ004-011-015-291200-
SOUTHERN NEW ENGLAND
 IN CT

CITY           SKY/WX    TMP DP  RH WIND       PRES   REMARKS
Bradley INTL   MOCLDY    71  65  81 SW3       30.10R
Hartford       CLOUDY    74  68  81 CALM      30.09S
Danbury        MOCLDY    70  64  81 SW3       30.13R
Wtrbury/Oxford MOCLDY    70  63  78 W3        30.15R
Bridgeport     CLOUDY    76  65  68 W8        30.10R
Meriden        PTCLDY    72  66  81 S3        30.10S
New Haven      MOCLDY    75  67  76 W5        30.11R
Chester        PTSUNNY   72  68  88 W5        30.11S
Groton         MOCLDY    74  69  85 SW6       30.09S
Wilimantic     MOCLDY    68  67  96 CALM      30.11S

 IN RI

CITY           SKY/WX    TMP DP  RH WIND       PRES   REMARKS
Providence     MOCLDY    71  65  81 S6        30.09S
Block Island   PTCLDY    72  68  87 SW10      30.11R
Westerly       CLOUDY    73  66  78 W7        30.11R
 IN MA

CITY           SKY/WX    TMP DP  RH WIND       PRES   REMARKS
Boston         CLOUDY    72  64  76 SW12      30.05S
Worcester      MOCLDY    67  63  87 W14       30.10R
Westfield      PTCLDY    68  65  90 CALM      30.10R
Provincetown   PTCLDY    69  67  93 S10       30.08S
Nantucket      CLEAR     69  66  90 SW8       30.10S
$$

ANZ330-335-338-340-345-350-353-355-291200-
COASTAL MARINE OBSERVATIONS


STATION/POSITION TIME  SKY/WX   TEMP    WIND        PRES    VSBY  WAVE
                                AIR SEA DIR/SP/G                  HT/PER
                 (UTC)          (F)     (DEG/KT/KT) (MB)    (MI)  (FT/S)
NY HARB ENTRANCE 0950            74 75  250/ 10/ 12 1019.4          3/14
20S FIRE ISLAND  0950            74 75  250/  6/  8 1019.4          3/14
GREAT SOUTH BAY  NOT AVBL
23 SSW MONTAUK P 0950            75 76  240/ 10/ 12 1019.6          3/14
15 E BARNEGAT LI 1000               76                N/A           3/14
HUDSON CANYON    0950            75 78              1019.8          3/14
KINGS POINT      1000            76 77              1019.2
EXECUTION ROCKS  1000            76     240/  8/ 10   N/A
CENTRAL LI SOUND NOT AVBL
EASTERN LI SOUND 1000            73 71  240/  8/ 10   N/A
ROBBINS REEF     1006            73     250/  6/  8 1019.1
$$


>>>>>>>>>>>>>>>>>>>>>>>>>>>> KEY <<<<<<<<<<<<<<<<<<<<<<<<<<<
>                                                          <
>     SKY/WX - Sky Condition/Present Weather               <
>     TMP    - Temperature in Fahrenheit                   <
>     DP     - Dew Point in Fahrenheit                     <
>     RH     - Relative Humidity in Percent                <
>     WIND   - Direction (from) and Speed in MPH           <
>     PRES   - Mean Sea Level Pressure (inches of Hg)      <
>     WCI    - Wind Chill Index                            <
>     VSB    - VISIBILITY IN MILES                         <
>     HX     - HEAT INDEX                                  <
>     TC     - TEMPERATURE IN CELSIUS                      <
>     VRB    - VARIABLE WIND DIRECTION                     <
>                                                          <
>>>>>>>>>>>>>>>>>>>>>>>>>>>> KEY <<<<<<<<<<<<<<<<<<<<<<<<<<<




USA.gov is the U.S. government's official web portal to all federal, state and local government web resources and services.